KAL907 RKSI-EGLL

Flight info

Callsign KAL907
Flight time N/A
Altitude 30000
Route BINIL Y697 AGAVO/K0933S0920 A591 IKEKA W4 HCH W200 DOVIV W55 PAMRU/K0926S0980 W34 LADIX B339 ASILA A575 UPREK W28 LAGEB W66 NUKTI B215 KABDO W119 GOBOK A343 IGLOT/K0900S1040 A343 RULAD/K0900F340 M610 ARBOL Z621 ELAHA N147 OTBOR/N0489F340 A480 TIMGA B476 METKA L88 RASAM N199 NUNTI/N0493F360 N199 LUSAL M11 REBLO UM11 CRM UM688 EKSUK UL852 NEGEM T746 ARGES DCT BUDOP DCT PATAK DCT KATQA DCT OKG DCT VELIS DCT SWALM DCT TIVUN DCT TORNU DCT BREDA DCT ABNED L980 LOGAN
Aircraft B77W/H-SDE1E2E3FGHIJ2J3J4J5M1RWXY/LB1D1

Departure

Time N/A
Airport Incheon International Airport (RKSI)

Arrival

Time 2026-05-06 16:05
Airport London Heathrow Airport (EGLL)
Time Latitude Longitude Altitude Speed Heading
2026-05-06 14:41 49.96817 12.90649 35780 ft 457 kts 281°
2026-05-06 14:41 49.97743 12.85921 35784 ft 457 kts 281°
2026-05-06 14:42 49.99590 12.76452 35791 ft 458 kts 282°
2026-05-06 14:42 50.01433 12.66958 35780 ft 459 kts 282°
2026-05-06 14:43 50.03270 12.57440 35776 ft 460 kts 282°
2026-05-06 14:43 50.05107 12.47886 35762 ft 461 kts 282°
2026-05-06 14:44 50.06954 12.38338 35774 ft 462 kts 283°
2026-05-06 14:45 50.10087 12.24073 35763 ft 464 kts 284°
2026-05-06 14:45 50.12199 12.14548 35768 ft 465 kts 284°
2026-05-06 14:46 50.14275 12.04999 35768 ft 465 kts 284°
2026-05-06 14:46 50.16333 11.95424 35780 ft 465 kts 284°
2026-05-06 14:47 50.18378 11.85853 35778 ft 466 kts 284°
2026-05-06 14:47 50.20419 11.76260 35777 ft 466 kts 283°
2026-05-06 14:48 50.22455 11.66649 35770 ft 466 kts 283°
2026-05-06 14:48 50.24484 11.57030 35774 ft 466 kts 283°
2026-05-06 14:49 50.26505 11.47398 35775 ft 467 kts 283°
2026-05-06 14:49 50.28506 11.37815 35775 ft 466 kts 283°
2026-05-06 14:50 50.30513 11.28162 35776 ft 467 kts 283°
2026-05-06 14:50 50.32515 11.18484 35772 ft 467 kts 283°
2026-05-06 14:51 50.34505 11.08817 35786 ft 467 kts 283°
2026-05-06 14:51 50.36492 10.99114 35765 ft 468 kts 283°
2026-05-06 14:52 50.38473 10.89396 35774 ft 469 kts 283°
2026-05-06 14:52 50.40447 10.79660 35770 ft 469 kts 283°
2026-05-06 14:53 50.42420 10.69892 35768 ft 469 kts 283°
2026-05-06 14:53 50.44382 10.60111 35766 ft 471 kts 283°
2026-05-06 14:54 50.46344 10.50303 35762 ft 471 kts 283°
2026-05-06 14:54 50.48314 10.40454 35756 ft 472 kts 283°
2026-05-06 14:55 50.50292 10.30613 35754 ft 473 kts 283°
2026-05-06 14:55 50.52268 10.20738 35762 ft 473 kts 283°
2026-05-06 14:56 50.54233 10.10854 35758 ft 474 kts 283°
2026-05-06 14:56 50.56178 10.01014 35748 ft 474 kts 283°
2026-05-06 14:57 50.58129 9.91090 35749 ft 473 kts 283°
2026-05-06 14:57 50.60065 9.81192 35768 ft 473 kts 283°
2026-05-06 14:58 50.61994 9.71279 35756 ft 473 kts 283°
2026-05-06 14:58 50.63915 9.61359 35752 ft 473 kts 283°
2026-05-06 14:59 50.65825 9.51441 35764 ft 473 kts 283°
2026-05-06 14:59 50.67729 9.41500 35761 ft 473 kts 283°
2026-05-06 15:00 50.69622 9.31567 35770 ft 473 kts 283°
2026-05-06 15:00 50.71502 9.21660 35767 ft 474 kts 283°
2026-05-06 15:01 50.73311 9.11679 35767 ft 473 kts 282°
2026-05-06 15:01 50.75045 9.01648 35761 ft 473 kts 282°
2026-05-06 15:02 50.76774 8.91616 35767 ft 473 kts 282°
2026-05-06 15:02 50.78507 8.81580 35769 ft 473 kts 282°
2026-05-06 15:03 50.80232 8.71554 35769 ft 473 kts 282°
2026-05-06 15:03 50.81950 8.61519 35773 ft 473 kts 282°
2026-05-06 15:04 50.83658 8.51470 35771 ft 473 kts 282°
2026-05-06 15:04 50.85357 8.41416 35788 ft 473 kts 282°
2026-05-06 15:05 50.87053 8.31334 35781 ft 474 kts 282°
2026-05-06 15:05 50.88455 8.22942 35788 ft 474 kts 282°
2026-05-06 15:06 50.90136 8.12830 35782 ft 475 kts 282°
2026-05-06 15:06 50.91810 8.02713 35789 ft 475 kts 281°
2026-05-06 15:07 50.93408 7.92559 35796 ft 474 kts 279°
2026-05-06 15:07 50.94704 7.82317 35803 ft 473 kts 278°
2026-05-06 15:08 50.95944 7.72073 35814 ft 473 kts 278°
2026-05-06 15:08 50.97214 7.61830 35814 ft 473 kts 278°
2026-05-06 15:09 50.98499 7.51588 35843 ft 474 kts 278°
2026-05-06 15:09 50.99785 7.41315 35831 ft 474 kts 278°
2026-05-06 15:10 51.01061 7.31036 35826 ft 474 kts 278°
2026-05-06 15:10 51.02324 7.20774 35825 ft 473 kts 278°
2026-05-06 15:11 51.03576 7.10512 35836 ft 473 kts 278°
2026-05-06 15:11 51.04810 7.00314 35833 ft 473 kts 278°
2026-05-06 15:12 51.06045 6.90039 35856 ft 473 kts 278°
2026-05-06 15:12 51.07270 6.79765 35862 ft 472 kts 278°
2026-05-06 15:13 51.08486 6.69483 35849 ft 472 kts 278°
2026-05-06 15:13 51.09693 6.59195 35856 ft 473 kts 278°
2026-05-06 15:14 51.10892 6.48893 35858 ft 474 kts 278°
2026-05-06 15:14 51.12079 6.38615 35855 ft 475 kts 278°
2026-05-06 15:15 51.13264 6.28261 35864 ft 476 kts 278°
2026-05-06 15:15 51.14444 6.17870 35875 ft 477 kts 278°
2026-05-06 15:16 51.15620 6.07432 35865 ft 480 kts 278°
2026-05-06 15:16 51.16792 5.96955 35852 ft 480 kts 278°
2026-05-06 15:17 51.18177 5.86556 35873 ft 480 kts 286°
2026-05-06 15:17 51.20775 5.76751 35885 ft 482 kts 297°
2026-05-06 15:18 51.24296 5.67643 35892 ft 482 kts 300°
2026-05-06 15:18 51.27871 5.58666 35890 ft 481 kts 300°
2026-05-06 15:19 51.31426 5.49592 35881 ft 481 kts 300°
2026-05-06 15:19 51.34948 5.40484 35884 ft 481 kts 300°
2026-05-06 15:20 51.38455 5.31369 35886 ft 481 kts 300°
2026-05-06 15:20 51.41952 5.22248 35887 ft 480 kts 300°
2026-05-06 15:21 51.45447 5.13108 35882 ft 480 kts 300°
2026-05-06 15:21 51.48906 5.04029 35914 ft 480 kts 299°
2026-05-06 15:22 51.52384 4.94869 35918 ft 480 kts 299°
2026-05-06 15:22 51.55651 4.85540 35910 ft 478 kts 292°
2026-05-06 15:23 51.57861 4.75501 35912 ft 475 kts 284°
2026-05-06 15:23 51.59640 4.65248 35881 ft 474 kts 284°
2026-05-06 15:24 51.61411 4.55040 35882 ft 474 kts 284°
2026-05-06 15:24 51.63195 4.44878 35885 ft 474 kts 284°
2026-05-06 15:25 51.64990 4.34671 35888 ft 474 kts 284°
2026-05-06 15:25 51.66780 4.24437 35884 ft 474 kts 284°
2026-05-06 15:26 51.68563 4.14181 35883 ft 474 kts 284°
2026-05-06 15:26 51.70331 4.03944 35891 ft 474 kts 284°
2026-05-06 15:27 51.72091 3.93691 35890 ft 474 kts 284°
2026-05-06 15:27 51.73832 3.83497 35907 ft 474 kts 284°
2026-05-06 15:28 51.75571 3.73247 35907 ft 472 kts 283°
2026-05-06 15:28 51.77292 3.63054 35903 ft 467 kts 283°
2026-05-06 15:29 51.78989 3.52925 35910 ft 468 kts 283°
2026-05-06 15:29 51.80683 3.42760 35927 ft 473 kts 283°
2026-05-06 15:30 51.82386 3.32497 35912 ft 470 kts 283°
2026-05-06 15:30 51.83971 3.22320 35923 ft 464 kts 278°
2026-05-06 15:31 51.84488 3.11904 35937 ft 467 kts 268°
2026-05-06 15:31 51.83960 3.01427 35935 ft 469 kts 263°
2026-05-06 15:32 51.82865 2.85764 35937 ft 464 kts 263°
2026-05-06 15:32 51.82182 2.75430 35935 ft 461 kts 263°
2026-05-06 15:33 51.81491 2.65061 35948 ft 466 kts 263°
2026-05-06 15:33 51.80773 2.54619 35866 ft 468 kts 263°
2026-05-06 15:34 51.80410 2.49408 35689 ft 465 kts 263°
2026-05-06 15:34 51.80052 2.44287 35378 ft 465 kts 263°
2026-05-06 15:34 51.79681 2.39022 34933 ft 468 kts 263°
2026-05-06 15:34 51.79318 2.33881 34616 ft 464 kts 263°
2026-05-06 15:35 51.78955 2.28760 33929 ft 459 kts 263°
2026-05-06 15:35 51.78587 2.23613 32787 ft 465 kts 263°
2026-05-06 15:35 51.78232 2.18381 31751 ft 471 kts 263°
2026-05-06 15:35 51.77918 2.13120 30773 ft 471 kts 264°
2026-05-06 15:36 51.77620 2.07865 29960 ft 469 kts 264°
2026-05-06 15:36 51.77324 2.02639 29190 ft 463 kts 264°
2026-05-06 15:36 51.77026 1.97502 28551 ft 456 kts 264°
2026-05-06 15:36 51.76727 1.92437 27924 ft 450 kts 263°
2026-05-06 15:37 51.76424 1.87427 27291 ft 446 kts 263°
2026-05-06 15:37 51.76121 1.82469 26690 ft 442 kts 263°
2026-05-06 15:37 51.75820 1.77565 26088 ft 437 kts 263°
2026-05-06 15:37 51.75518 1.72699 25466 ft 435 kts 264°
2026-05-06 15:38 51.75217 1.67842 25162 ft 434 kts 264°
2026-05-06 15:38 51.74914 1.63008 24997 ft 432 kts 264°
2026-05-06 15:38 51.74609 1.58194 24943 ft 430 kts 263°
2026-05-06 15:38 51.74297 1.53351 24060 ft 437 kts 263°
2026-05-06 15:39 51.73988 1.48604 23175 ft 413 kts 263°
2026-05-06 15:39 51.73695 1.44114 22610 ft 396 kts 264°
2026-05-06 15:39 51.73403 1.39660 22651 ft 408 kts 264°
2026-05-06 15:39 51.73096 1.35011 22668 ft 422 kts 264°
2026-05-06 15:40 51.72783 1.30296 22672 ft 423 kts 264°
2026-05-06 15:40 51.72470 1.25599 22664 ft 420 kts 264°
2026-05-06 15:40 51.72156 1.20918 22658 ft 418 kts 264°
2026-05-06 15:40 51.71842 1.16261 22653 ft 416 kts 264°
2026-05-06 15:41 51.71527 1.11623 22646 ft 415 kts 264°
2026-05-06 15:41 51.71214 1.07030 22425 ft 403 kts 264°
2026-05-06 15:41 51.70919 1.02712 22185 ft 371 kts 264°
2026-05-06 15:41 51.70644 0.98729 21850 ft 345 kts 263°
2026-05-06 15:42 51.70384 0.94989 21284 ft 328 kts 264°
2026-05-06 15:42 51.70133 0.91390 20491 ft 320 kts 264°
2026-05-06 15:42 51.69890 0.87899 19643 ft 316 kts 264°
2026-05-06 15:42 51.69646 0.84390 18746 ft 314 kts 264°
2026-05-06 15:43 51.69403 0.80918 17922 ft 309 kts 264°
2026-05-06 15:43 51.69164 0.77495 17015 ft 305 kts 264°
2026-05-06 15:43 51.68926 0.74124 16166 ft 301 kts 264°
2026-05-06 15:43 51.68690 0.70803 15314 ft 297 kts 264°
2026-05-06 15:44 51.68454 0.67498 14478 ft 294 kts 264°
2026-05-06 15:44 51.68221 0.64235 13650 ft 292 kts 264°
2026-05-06 15:44 51.67988 0.60988 12742 ft 291 kts 265°
2026-05-06 15:44 51.67757 0.57777 11985 ft 284 kts 265°
2026-05-06 15:45 51.67527 0.54612 11125 ft 283 kts 265°
2026-05-06 15:45 51.67301 0.51490 10410 ft 278 kts 265°
2026-05-06 15:45 51.67076 0.48399 9591 ft 277 kts 264°
2026-05-06 15:45 51.66851 0.45356 9278 ft 272 kts 266°
2026-05-06 15:46 51.66702 0.43322 9171 ft 281 kts 264°
2026-05-06 15:46 51.66391 0.39083 8988 ft 285 kts 264°
2026-05-06 15:46 51.66162 0.35993 8988 ft 279 kts 266°
2026-05-06 15:46 51.65933 0.32906 8984 ft 277 kts 266°
2026-05-06 15:47 51.65705 0.29848 8982 ft 271 kts 265°
2026-05-06 15:47 51.65555 0.27845 8970 ft 262 kts 265°
2026-05-06 15:47 51.65275 0.24108 8973 ft 247 kts 265°
2026-05-06 15:47 51.65068 0.21375 8978 ft 244 kts 266°
2026-05-06 15:48 51.64931 0.19540 8985 ft 245 kts 264°
2026-05-06 15:48 51.64657 0.15919 9001 ft 247 kts 265°
2026-05-06 15:48 51.64500 0.14106 8998 ft 248 kts 262°
2026-05-06 15:48 51.64187 0.11370 9001 ft 249 kts 262°
2026-05-06 15:49 51.63855 0.08633 8996 ft 249 kts 261°
2026-05-06 15:49 51.63513 0.05894 8996 ft 249 kts 261°
2026-05-06 15:49 51.63165 0.03164 8994 ft 248 kts 261°
2026-05-06 15:49 51.62823 0.00437 8986 ft 247 kts 261°
2026-05-06 15:50 51.62482 -0.02256 9032 ft 245 kts 261°
2026-05-06 15:50 51.62139 -0.04944 9025 ft 244 kts 261°
2026-05-06 15:50 51.61807 -0.07620 9029 ft 244 kts 261°
2026-05-06 15:50 51.61465 -0.10287 9041 ft 243 kts 261°
2026-05-06 15:51 51.61119 -0.12956 9037 ft 244 kts 261°
2026-05-06 15:51 51.60771 -0.15632 9047 ft 244 kts 261°
2026-05-06 15:51 51.60414 -0.18308 9049 ft 245 kts 260°
2026-05-06 15:51 51.60061 -0.20998 9048 ft 246 kts 261°
2026-05-06 15:52 51.59712 -0.23695 9039 ft 246 kts 261°
2026-05-06 15:52 51.59359 -0.26386 8987 ft 245 kts 261°
2026-05-06 15:52 51.59028 -0.29072 8988 ft 243 kts 265°
2026-05-06 15:52 51.58900 -0.31761 9005 ft 241 kts 270°
2026-05-06 15:53 51.58827 -0.34453 8992 ft 242 kts 270°
2026-05-06 15:53 51.58775 -0.37160 9004 ft 242 kts 271°
2026-05-06 15:53 51.58720 -0.39869 9002 ft 243 kts 271°
2026-05-06 15:53 51.58658 -0.42590 8997 ft 244 kts 271°
2026-05-06 15:54 51.58592 -0.45317 8987 ft 244 kts 270°
2026-05-06 15:54 51.58539 -0.48041 8874 ft 244 kts 271°
2026-05-06 15:54 51.58488 -0.50753 8686 ft 239 kts 270°
2026-05-06 15:54 51.58434 -0.53381 8109 ft 236 kts 270°
2026-05-06 15:55 51.58401 -0.55985 7489 ft 236 kts 270°
2026-05-06 15:55 51.58371 -0.58633 7202 ft 241 kts 270°
2026-05-06 15:55 51.58346 -0.61375 7051 ft 247 kts 271°
2026-05-06 15:55 51.58315 -0.64089 6981 ft 237 kts 270°
2026-05-06 15:56 51.58290 -0.66702 6985 ft 233 kts 270°
2026-05-06 15:56 51.58260 -0.69324 7000 ft 237 kts 271°
2026-05-06 15:56 51.58228 -0.72023 6601 ft 246 kts 271°
2026-05-06 15:56 51.58190 -0.74761 6097 ft 238 kts 267°
2026-05-06 15:57 51.57736 -0.77224 5687 ft 228 kts 237°
2026-05-06 15:57 51.56761 -0.79175 5214 ft 221 kts 231°
2026-05-06 15:57 51.55777 -0.80984 5012 ft 211 kts 230°
2026-05-06 15:57 51.54840 -0.82720 5054 ft 201 kts 231°
2026-05-06 15:58 51.53921 -0.84383 5013 ft 198 kts 230°
2026-05-06 15:58 51.52982 -0.85958 4950 ft 195 kts 219°
2026-05-06 15:58 51.51703 -0.86672 4810 ft 199 kts 182°
2026-05-06 15:58 51.50311 -0.86660 4725 ft 208 kts 176°
2026-05-06 15:59 51.48934 -0.85879 4107 ft 213 kts 138°
2026-05-06 15:59 51.48181 -0.83997 3810 ft 193 kts 99°
2026-05-06 15:59 51.47980 -0.81965 3632 ft 182 kts 92°
2026-05-06 15:59 51.47820 -0.79921 3456 ft 187 kts 94°
2026-05-06 16:00 51.47701 -0.77829 3225 ft 189 kts 88°
2026-05-06 16:00 51.47663 -0.75750 3097 ft 183 kts 86°
2026-05-06 16:00 51.47659 -0.73748 3023 ft 174 kts 85°
2026-05-06 16:00 51.47663 -0.71870 2975 ft 164 kts 84°
2026-05-06 16:01 51.47670 -0.70037 2834 ft 164 kts 85°
2026-05-06 16:01 51.47677 -0.68213 2568 ft 161 kts 84°
2026-05-06 16:01 51.47683 -0.66426 2357 ft 161 kts 84°
2026-05-06 16:01 51.47692 -0.64620 2143 ft 162 kts 85°
2026-05-06 16:02 51.47697 -0.62842 1924 ft 158 kts 85°
2026-05-06 16:02 51.47704 -0.61068 1714 ft 159 kts 85°
2026-05-06 16:02 51.47707 -0.59332 1479 ft 150 kts 84°
2026-05-06 16:02 51.47714 -0.57730 1257 ft 138 kts 84°
2026-05-06 16:03 51.47720 -0.56195 1105 ft 138 kts 83°
2026-05-06 16:03 51.47727 -0.54670 870 ft 136 kts 84°
2026-05-06 16:03 51.47732 -0.53147 711 ft 137 kts 86°
2026-05-06 16:03 51.47734 -0.51624 470 ft 136 kts 86°
2026-05-06 16:04 51.47744 -0.50059 334 ft 146 kts 86°
2026-05-06 16:04 51.47749 -0.48482 126 ft 139 kts 84°
2026-05-06 16:04 51.47759 -0.47022 96 ft 115 kts 90°
2026-05-06 16:04 51.47760 -0.45992 93 ft 73 kts 90°
2026-05-06 16:05 51.47762 -0.45417 90 ft 30 kts 91°
2026-05-06 16:05 51.47704 -0.45178 96 ft 13 kts 169°
2026-05-06 16:05 51.47660 -0.45176 93 ft 8 kts 179°
2026-05-06 16:05 51.47602 -0.45104 94 ft 12 kts 104°
2026-05-06 16:06 51.47598 -0.44968 91 ft 12 kts 90°
2026-05-06 16:06 51.47598 -0.44837 91 ft 12 kts 90°
2026-05-06 16:06 51.47567 -0.44673 94 ft 20 kts 152°
2026-05-06 16:06 51.47451 -0.44567 95 ft 19 kts 168°
2026-05-06 16:07 51.47342 -0.44558 91 ft 15 kts 179°
2026-05-06 16:07 51.47230 -0.44557 91 ft 17 kts 180°
2026-05-06 16:07 51.47110 -0.44556 91 ft 15 kts 180°
2026-05-06 16:07 51.46995 -0.44556 91 ft 18 kts 179°
2026-05-06 16:08 51.46875 -0.44554 92 ft 18 kts 179°
2026-05-06 16:08 51.46745 -0.44553 93 ft 19 kts 179°
2026-05-06 16:08 51.46668 -0.44617 92 ft 10 kts 239°
2026-05-06 16:08 51.46647 -0.44662 96 ft 0 kts 229°
2026-05-06 16:09 51.46646 -0.44663 96 ft 0 kts 229°
2026-05-06 16:09 51.46645 -0.44664 95 ft 0 kts 229°
2026-05-06 16:10 51.46632 -0.44687 96 ft 9 kts 226°
2026-05-06 16:10 51.46563 -0.44791 96 ft 15 kts 221°
2026-05-06 16:11 51.46484 -0.44901 98 ft 15 kts 222°
2026-05-06 16:11 51.46405 -0.45015 96 ft 10 kts 221°
2026-05-06 16:11 51.46382 -0.45048 95 ft 0 kts 221°
2026-05-06 16:11 51.46378 -0.45053 94 ft 0 kts 220°
2026-05-06 16:12 51.46357 -0.45060 94 ft 7 kts 179°
2026-05-06 16:12 51.46322 -0.45007 93 ft 8 kts 109°
2026-05-06 16:12 51.46318 -0.44915 94 ft 9 kts 90°
2026-05-06 16:12 51.46317 -0.44810 94 ft 12 kts 90°
2026-05-06 16:13 51.46245 -0.44737 91 ft 12 kts 177°
2026-05-06 16:13 51.46206 -0.44675 93 ft 7 kts 128°
2026-05-06 16:13 51.46190 -0.44646 95 ft 2 kts 130°
2026-05-06 16:13 51.46187 -0.44640 95 ft 0 kts 130°